Location: Camp at the Woods
(43.2055°N, 93.0905°W)
Time: 01:07:48
(UTC+00:00)

Cosmos 2227 Rocket - Pass Details

Date: 24 May 2025
Orbit: 837 x 844 km, 71.0° (Epoch: 12 June)

Event Time Altitude Azimuth Distance (km) Brightness Sun altitude
Exits shadow 06:37:54 17° 109° (ESE) 1,988 4.0 -25.6°
Maximum altitude 06:38:40 18° 99° (E) 1,965 4.1 -25.6°
Drops below altitude 10° 06:42:16 10° 59° (ENE) 2,459 5.1 -25.5°
Sets 06:45:29 0° 41° (NE) 3,400 6.3 -25.4°
